DO7FJK-87 Weather Reports


time (UTC)temp
C
wind
direction
speed
KPH
gust
KPH
rain 1hr
cm
rain 24hr
cm
rain mn
cm
humidity
%
barometer
mb
20260506102000 12 0 9.7 0.0 0.00 0.00 0.00 72
20260506101001 12 0 11.3 0.0 0.00 0.00 0.00 70
20260506100000 12 0 9.7 0.0 0.00 0.00 0.00 70
20260506095000 12 0 6.4 0.0 0.00 0.00 0.00 72
20260506094000 12 0 6.4 0.0 0.00 0.00 0.00 73
20260506093000 11 0 9.7 0.0 0.00 0.00 0.00 72
20260506092000 11 0 9.7 0.0 0.00 0.00 0.00 71
20260506091000 11 0 9.7 0.0 0.00 0.00 0.00 72
20260506090000 11 0 9.7 0.0 0.00 0.00 0.00 73
20260506085000 11 0 0.0 0.0 0.00 0.00 0.00 73
20260506084000 11 0 6.4 0.0 0.00 0.00 0.00 75
20260506083000 10 0 6.4 0.0 0.00 0.00 0.00 73
20260506082000 10 0 9.7 0.0 0.00 0.00 0.00 73
20260506081000 10 0 9.7 0.0 0.00 0.00 0.00 73
20260506073000 10 0 9.7 0.0 0.00 0.00 0.00 74
20260506072000 10 0 14.5 0.0 0.00 0.00 0.00 73
20260506071000 10 0 8.0 0.0 0.00 0.00 0.00 74
20260506062000 9 0 11.3 0.0 0.00 0.00 0.00 75
20260506061000 9 0 9.7 0.0 0.00 0.00 0.00 75
20260506051001 9 0 11.3 0.0 0.00 0.00 0.00 77
20260506045000 8 0 9.7 0.0 0.00 0.00 0.00 78
20260506044001 8 0 9.7 0.0 0.00 0.00 0.00 76
20260506043001 8 0 8.0 0.0 0.00 0.00 0.00 78
20260506042001 8 0 9.7 0.0 0.00 0.00 0.00 80
20260506041000 7 0 6.4 0.0 0.00 0.00 0.00 84
20260506040000 7 0 0.0 0.0 0.00 0.00 0.00 85
20260506035001 7 0 0.0 0.0 0.00 0.00 0.00 86
20260506034000 6 0 0.0 0.0 0.00 0.00 0.00 87
20260506033000 6 0 0.0 0.0 0.00 0.00 0.00 87
20260506032000 6 0 0.0 0.0 0.00 0.00 0.00 87
20260506031000 6 0 0.0 0.0 0.00 0.00 0.00 87
20260506030000 6 0 0.0 0.0 0.00 0.00 0.00 87
20260506025000 6 0 0.0 0.0 0.00 0.00 0.00 87
20260506024000 6 0 0.0 0.0 0.00 0.00 0.00 87
20260506023001 6 0 0.0 0.0 0.00 0.00 0.00 87
20260506022000 6 0 0.0 0.0 0.00 0.00 0.00 87
20260506021000 6 0 0.0 0.0 0.00 0.00 0.00 87
20260506020000 6 0 0.0 0.0 0.00 0.00 0.00 87
20260506015000 6 0 0.0 0.0 0.00 0.00 0.00 87
20260506014000 6 0 0.0 0.0 0.00 0.00 0.00 87
20260506013001 6 0 0.0 0.0 0.00 0.00 0.00 87
20260506012000 6 0 0.0 0.0 0.00 0.00 0.00 87
20260506011001 7 0 0.0 0.0 0.00 0.00 0.00 87
20260506010000 7 0 0.0 0.0 0.00 0.00 0.00 87
20260506005000 7 0 0.0 0.0 0.00 0.00 0.00 87
20260506004001 7 0 0.0 0.0 0.00 0.00 0.00 87
20260506003000 7 0 0.0 0.0 0.00 0.00 0.00 87
20260506002000 7 0 0.0 0.0 0.00 0.00 0.00 87
20260506001000 7 0 0.0 0.0 0.00 0.00 0.00 88
20260506000001 7 0 0.0 0.0 0.00 0.00 0.00 88
20260505235000 7 0 0.0 0.0 0.00 0.00 0.00 88
20260505234000 6 0 0.0 0.0 0.00 0.00 0.00 88
20260505233000 6 0 0.0 0.0 0.00 0.00 0.00 88
20260505232000 6 0 0.0 0.0 0.00 0.00 0.00 88
20260505231000 6 0 0.0 0.0 0.00 0.00 0.00 88
20260505230001 7 0 0.0 0.0 0.00 0.00 0.00 88
20260505225000 6 0 0.0 0.0 0.00 0.00 0.00 87
20260505224000 6 0 0.0 0.0 0.00 0.00 0.00 87
20260505223000 6 0 0.0 0.0 0.00 0.00 0.00 87
20260505222001 6 0 0.0 0.0 0.00 0.00 0.00 87
20260505221000 6 0 0.0 0.0 0.00 0.00 0.00 86
20260505220001 6 0 0.0 0.0 0.00 0.00 0.00 86
20260505215000 7 0 0.0 0.0 0.00 0.00 0.00 86
20260505214000 7 0 0.0 0.0 0.00 0.00 0.00 86
20260505213001 7 0 0.0 0.0 0.00 0.00 0.00 86
20260505212000 7 0 0.0 0.0 0.00 0.00 0.00 85
20260505211000 7 0 0.0 0.0 0.00 0.00 0.00 85
20260505210000 7 0 0.0 0.0 0.00 0.00 0.00 85
20260505205000 7 0 0.0 0.0 0.00 0.00 0.00 85
20260505204001 7 0 0.0 0.0 0.00 0.00 0.00 84
20260505203001 8 0 0.0 0.0 0.00 0.00 0.00 84
20260505202001 8 0 0.0 0.0 0.00 0.00 0.00 84
20260505201000 8 0 0.0 0.0 0.00 0.00 0.00 84
20260505200000 8 0 0.0 0.0 0.00 0.00 0.00 84
20260505194000 8 0 0.0 0.0 0.00 0.00 0.00 83
20260505193001 9 0 0.0 0.0 0.00 0.00 0.00 83
20260505192000 9 0 0.0 0.0 0.00 0.00 0.00 82
20260505191000 9 0 0.0 0.0 0.00 0.00 0.00 82
20260505190000 9 0 6.4 0.0 0.00 0.00 0.00 81
20260505185001 10 0 6.4 0.0 0.00 0.00 0.00 79
20260505184000 10 0 0.0 0.0 0.00 0.00 0.00 78
20260505183001 10 0 3.2 0.0 0.00 0.00 0.00 78
20260505182000 10 0 6.4 0.0 0.00 0.00 0.00 77
20260505181001 11 0 6.4 0.0 0.00 0.00 0.00 75
20260505180001 11 0 8.0 0.0 0.00 0.00 0.00 74
20260505175000 11 0 6.4 0.0 0.00 0.00 0.00 76
20260505174000 12 0 8.0 0.0 0.00 0.00 0.00 75
20260505173000 12 0 8.0 0.0 0.00 0.00 0.00 74
20260505172000 12 0 6.4 0.0 0.00 0.00 0.00 75
20260505171000 12 0 9.7 0.0 0.00 0.00 0.00 73
20260505170001 13 0 8.0 0.0 0.00 0.00 0.00 73
20260505165000 13 0 8.0 0.0 0.00 0.00 0.00 73
20260505164001 13 0 6.4 0.0 0.00 0.00 0.00 75
20260505163000 13 0 6.4 0.0 0.00 0.00 0.00 75
20260505162000 13 0 6.4 0.0 0.00 0.00 0.00 76
20260505161000 13 0 6.4 0.0 0.00 0.00 0.00 75
20260505153000 13 0 8.0 0.0 0.00 0.00 0.00 75
20260505152001 13 0 8.0 0.0 0.00 0.00 0.00 75
20260505151000 14 0 9.7 0.0 0.00 0.00 0.00 75
20260505125000 14 0 8.0 0.0 0.00 0.00 0.00 76
20260505124000 13 0 8.0 0.0 0.00 0.00 0.00 76
20260505123000 14 0 0.0 0.0 0.00 0.00 0.00 76
20260505122000 13 0 3.2 0.0 0.00 0.00 0.00 79
20260505121001 13 0 8.0 0.0 0.00 0.00 0.00 79
20260505120000 13 0 9.7 0.0 0.00 0.00 0.00 79
20260505115000 13 0 8.0 0.0 0.00 0.00 0.00 78
20260505114000 13 0 9.7 0.0 0.00 0.00 0.00 79
20260505113000 13 0 8.0 0.0 0.00 0.00 0.00 81
20260505112000 13 0 0.0 0.0 0.00 0.00 0.00 81
20260505111000 12 0 8.0 0.0 0.00 0.00 0.00 83